Zurück zum Katalog

PEGASUS R/B

AktivLEO
NORAD 24921·ROCKET BODY·🇺🇸 United States

Gestartet Aug 29, 1997 von Vandenberg Space Force Base

Loading…

Nächste Überflüge (nächste 24 Stunden)

TLE

AktuellSource: Space-Track

Epoche: Sep 14, 2026, 14:47 UTC

1 24921U 97047B   26257.61646639  .00000050  00000-0  44346-4 0  9998
2 24921  69.9704 210.1749 0018713 140.1542  32.3865 14.26588228511039

Verfolge PEGASUS R/B in Echtzeit mit AllMySat

Download on the App Store